This is the latest recevied weather packets stored in our database for station/object W4ZHA. If no packets are shown the sender has not sent any weather packets the latest 10 day(s).
| Time | Temp. | Humidity | Pressure | Rain* | Wind** | Luminosity | Snow |
|---|---|---|---|---|---|---|---|
| 1777588280 | 20.56° C | 53% | 1012.7 hPa | 0 mm | - | 197 W/m² | - |
| 1777587976 | 20° C | 53% | 1013 hPa | 0 mm | - | 328 W/m² | - |
| 1777587672 | 20° C | 52% | 1013 hPa | 0 mm | - | 187 W/m² | - |
| 1777587372 | 20.56° C | 52% | 1013 hPa | 0 mm | - | 299 W/m² | - |
| 1777587068 | 20.56° C | 52% | 1012.7 hPa | 0 mm | - | 327 W/m² | - |
| 1777586764 | 21.11° C | 53% | 1013 hPa | 0 mm | - | 266 W/m² | - |
| 1777586460 | 21.11° C | 52% | 1012.7 hPa | 0 mm | - | 239 W/m² | - |
| 1777586155 | 20.56° C | 52% | 1013 hPa | 0 mm | - | 300 W/m² | - |
| 1777585853 | 20.56° C | 53% | 1012.7 hPa | 0 mm | - | 233 W/m² | - |
| 1777585553 | 21.11° C | 53% | 1012.7 hPa | 0 mm | - | 276 W/m² | - |
| 1777585249 | 21.11° C | 52% | 1012.7 hPa | 0 mm | - | 278 W/m² | - |
| 1777584944 | 20° C | 53% | 1012.7 hPa | 0 mm | - | 280 W/m² | - |
| 1777584641 | 20.56° C | 53% | 1013 hPa | 0 mm | - | 210 W/m² | - |
| 1777584338 | 21.11° C | 52% | 1013 hPa | 0 mm | - | 212 W/m² | - |
| 1777584034 | 20.56° C | 52% | 1013 hPa | 0 mm | - | 206 W/m² | - |
| 1777583729 | 20.56° C | 52% | 1013 hPa | 0 mm | - | 186 W/m² | - |
| 1777583428 | 21.11° C | 50% | 1013 hPa | 0 mm | - | 201 W/m² | - |
| 1777583127 | 20.56° C | 51% | 1013 hPa | 0 mm | - | 258 W/m² | - |
| 1777582823 | 21.67° C | 50% | 1013 hPa | 0 mm | - | 217 W/m² | - |
| 1777582520 | 20.56° C | 51% | 1013.4 hPa | 0 mm | - | 289 W/m² | - |
| 1777582215 | 20.56° C | 50% | 1013 hPa | 0 mm | - | 268 W/m² | - |
| 1777581913 | 21.11° C | 50% | 1012.7 hPa | 0 mm | - | 242 W/m² | - |
| 1777581609 | 20.56° C | 50% | 1013 hPa | 0 mm | - | 313 W/m² | - |
| 1777581303 | 20.56° C | 50% | 1013.4 hPa | 0 mm | - | 318 W/m² | - |
| 1777580998 | 20.56° C | 50% | 1013.4 hPa | 0 mm | - | 313 W/m² | - |
* Rain latest hour (hover to see other rain measurements)
** Current wind speed in m/s (hover to see current wind gust speed)